Regional Weather Roundup
Issued by NWS Northern Indiana

Home | Current Version | Previous Version | Text Only | Print | Product List | Glossary Off
Versions: 1 2 3 4 5 6 7 8 9 10 11 12 13 14 15 16 17 18 19 20 21 22 23 24 25 26 27 28 29 30 31 32 33 34 35 36 37 38 39 40 41 42 43 44 45 46 47 48 49 50

000
ASUS43 KIWX 170410
RWRIWX

KIWX WEATHER ROUNDUP
NATIONAL WEATHER SERVICE NORTHERN INDIANA
1200 AM EDT WED SEP 17 2014

NOTE: "FAIR" INDICATES FEW OR NO CLOUDS BELOW 12,000 FEET WITH NO
SIGNIFICANT WEATHER AND/OR OBSTRUCTIONS TO VISIBILITY.

* THESE STATIONS ARE NOT UNDER NWS QUALITY CONTROL. THEY ALSO MAY NOT
  REPORT WEATHER SUCH AS PRECIPITATION OR FOG.

INZ001>027-170500-
NORTHERN INDIANA

CITY           SKY/WX    TMP DP  RH WIND       PRES   REMARKS
GARY*          CLEAR     49  47  95 CALM      30.10F
VALPARAISO     CLEAR     48  47  96 CALM      30.11S
MICHIGAN CITY* CLEAR     46  46 100 CALM      30.11S FOG
LAPORTE*       PTCLDY    46  46 100 CALM      30.11S
KNOX*            N/A     47  45  93 CALM      30.10S VSB 3/4
SOUTH BEND     CLEAR     48  43  82 CALM      30.11F
GOSHEN         CLEAR     48  45  89 CALM      30.11S
MONTICELLO*    CLEAR     48  48  99 CALM      30.10S
LOGANSPORT*    CLEAR     45  43  93 CALM      30.11S
ROCHESTER*     CLEAR     50  50 100 CALM      30.11S
WARSAW*        CLEAR     46  46 100 CALM      30.11S
ANGOLA*        CLEAR     46  46 100 CALM      30.11S
FORT WAYNE     CLEAR     49  46  90 CALM      30.12R
HUNTINGTON*    CLEAR     47  47  98 CALM      30.11S
PERU/GRISSOM   CLEAR     50  50 100 CALM      30.11R
MARION*        CLEAR     46  45  97 CALM      30.12S

$$
INZ028>050-170500-
CENTRAL INDIANA

CITY           SKY/WX    TMP DP  RH WIND       PRES   REMARKS
LAFAYETTE      CLEAR     48  48 100 MISG      30.10S FOG
KOKOMO*        CLEAR     46  43  87 CALM      30.11S
MUNCIE*        CLEAR     49  46  90 CALM      30.11S
INDIANAPOLIS   CLEAR     52  49  89 SW7       30.11R

$$
MIZ043>046-050>051-056>058-064>065-071>073-077>080-170500-
SOUTHWEST LOWER MICHIGAN

CITY           SKY/WX    TMP DP  RH WIND       PRES   REMARKS
BATTLE CREEK   CLEAR     46  42  86 SW3       30.10S
BENTON HARBOR  CLEAR     43  43 100 CALM      30.10S
COLDWATER*     CLEAR     46  45  95 CALM      30.10F
HILLSDALE*     PTCLDY    45  44  97 CALM      30.10S
HOLLAND        CLEAR     44  42  93 CALM      30.11S
GRAND RAPIDS   CLEAR     48  43  82 W5        30.09F
KALAMAZOO      CLEAR     46  43  89 CALM      30.10F
STURGIS*       CLEAR     45  45 100 CALM      30.10S
THREE RIVERS*  FAIR      45  43  93 CALM      30.11S

$$
OHZ001>008-015>018-024>025-170500-
NORTHWEST OHIO

CITY           SKY/WX    TMP DP  RH WIND       PRES   REMARKS
WAUSEON*       FAIR      48  45  87 NW5       30.10S
DEFIANCE       CLEAR     49  45  86 CALM      30.11R
FINDLAY        CLEAR     50  46  86 SW5       30.09S
TOLEDO EXPRESS CLEAR     52  46  80 W5        30.10R
TOLEDO METCALF CLEAR     50  44  80 S3        30.09S
LIMA           CLEAR     49  45  86 CALM      30.10S

$$
&&



USA.gov is the U.S. government's official web portal to all federal, state and local government web resources and services.